Hourly Weather Ondjiwa

Today, 22 October, Thursday

Time Temperature Precipitation Wind Pressure Humidity
00:00 +23°C° 0 mm 4 mps 666 mmHg 28%
01:00 +22°C° 0 mm 4 mps 666 mmHg 35%
02:00 +20°C° 0 mm 3 mps 666 mmHg 38%
03:00 +19°C° 0 mm 2 mps 666 mmHg 41%
04:00 +19°C° 0 mm 1 mps 666 mmHg 43%
05:00 +19°C° 0 mm 2 mps 667 mmHg 40%
06:00 +20°C° 0 mm 2 mps 668 mmHg 38%
07:00 +21°C° 0 mm 3 mps 669 mmHg 35%
08:00 +25°C° 0 mm 3 mps 669 mmHg 29%
09:00 +29°C° 0 mm 2 mps 669 mmHg 23%
10:00 +32°C° 0 mm 2 mps 669 mmHg 17%
11:00 +35°C° 0 mm 1 mps 669 mmHg 15%
12:00 +37°C° 0 mm 1 mps 669 mmHg 13%
13:00 +41°C° 0 mm 1 mps 669 mmHg 11%
14:00 +40°C° 0 mm 1 mps 668 mmHg 10%
15:00 +40°C° 0 mm 1 mps 667 mmHg 10%
16:00 +39°C° 0 mm 2 mps 666 mmHg 10%
17:00 +36°C° 0 mm 1 mps 665 mmHg 11%
18:00 +33°C° 0 mm 1 mps 665 mmHg 13%
19:00 +30°C° 0 mm 1 mps 665 mmHg 14%
20:00 +29°C° 0 mm 1 mps 666 mmHg 15%
21:00 +28°C° 0 mm 2 mps 666 mmHg 16%
22:00 +27°C° 0 mm 2 mps 667 mmHg 18%
23:00 +26°C° 0 mm 2 mps 667 mmHg 22%

Tomorrow, 23 October, Friday

Time Temperature Precipitation Wind Pressure Humidity
00:00 +25°C° 0 mm 3 mps 667 mmHg 27%
01:00 +24°C° 0 mm 3 mps 667 mmHg 31%
02:00 +22°C° 0 mm 3 mps 666 mmHg 36%
03:00 +21°C° 0 mm 3 mps 666 mmHg 42%
04:00 +20°C° 0 mm 3 mps 666 mmHg 47%
05:00 +21°C° 0 mm 3 mps 667 mmHg 44%
06:00 +23°C° 0 mm 2 mps 668 mmHg 42%
07:00 +24°C° 0 mm 2 mps 668 mmHg 39%
08:00 +28°C° 0 mm 2 mps 669 mmHg 32%
09:00 +31°C° 0 mm 2 mps 669 mmHg 24%
10:00 +35°C° 0 mm 1 mps 670 mmHg 17%
11:00 +38°C° 0 mm 2 mps 669 mmHg 15%
12:00 +40°C° 0 mm 2 mps 669 mmHg 13%
13:00 +41°C° 0 mm 2 mps 668 mmHg 11%
14:00 +41°C° 0 mm 2 mps 667 mmHg 11%
15:00 +41°C° 0 mm 2 mps 667 mmHg 11%
16:00 +40°C° 0 mm 2 mps 666 mmHg 10%
17:00 +38°C° 0 mm 2 mps 666 mmHg 12%
18:00 +36°C° 0 mm 2 mps 666 mmHg 14%
19:00 +32°C° 0 mm 2 mps 666 mmHg 16%
20:00 +31°C° 0 mm 2 mps 666 mmHg 17%
21:00 +31°C° 0 mm 1 mps 666 mmHg 18%
22:00 +30°C° 0 mm 1 mps 667 mmHg 19%
23:00 +29°C° 0 mm 2 mps 666 mmHg 21%

Day after tomorrow, 24 October, Saturday

Time Temperature Precipitation Wind Pressure Humidity
00:00 +28°C° 0 mm 3 mps 666 mmHg 23%
01:00 +27°C° 0 mm 4 mps 666 mmHg 25%
02:00 +25°C° 0 mm 3 mps 666 mmHg 29%
03:00 +24°C° 0 mm 3 mps 665 mmHg 34%
04:00 +22°C° 0 mm 3 mps 665 mmHg 38%
05:00 +23°C° 0 mm 2 mps 666 mmHg 35%
06:00 +24°C° 0 mm 2 mps 666 mmHg 32%
07:00 +25°C° 0 mm 1 mps 667 mmHg 30%
08:00 +29°C° 0 mm 3 mps 668 mmHg 24%
09:00 +34°C° 0 mm 4 mps 668 mmHg 18%
10:00 +40°C° 0 mm 5 mps 669 mmHg 12%
11:00 +40°C° 0 mm 5 mps 668 mmHg 11%
12:00 +41°C° 0 mm 4 mps 667 mmHg 10%
13:00 +42°C° 0 mm 4 mps 667 mmHg 9%
14:00 +42°C° 0 mm 4 mps 666 mmHg 9%
15:00 +42°C° 0 mm 3 mps 666 mmHg 9%
16:00 +42°C° 0 mm 3 mps 665 mmHg 8%
17:00 +38°C° 0 mm 2 mps 665 mmHg 10%
18:00 +35°C° 0 mm 2 mps 665 mmHg 12%
19:00 +32°C° 0 mm 1 mps 664 mmHg 14%
20:00 +31°C° 0 mm 1 mps 665 mmHg 15%
21:00 +30°C° 0 mm 1 mps 665 mmHg 16%
22:00 +29°C° 0 mm 1 mps 666 mmHg 17%
23:00 +28°C° 0 mm 2 mps 665 mmHg 20%

, 25 October, Sunday

Time Temperature Precipitation Wind Pressure Humidity
00:00 +27°C° 0 mm 3 mps 665 mmHg 23%
01:00 +25°C° 0 mm 3 mps 665 mmHg 26%
02:00 +24°C° 0 mm 3 mps 664 mmHg 30%
03:00 +22°C° 0 mm 3 mps 664 mmHg 33%
04:00 +20°C° 0 mm 2 mps 664 mmHg 36%
05:00 +21°C° 0 mm 2 mps 665 mmHg 33%
06:00 +24°C° 0 mm 2 mps 666 mmHg 30%
07:00 +25°C° 0 mm 2 mps 666 mmHg 27%
08:00 +29°C° 0 mm 2 mps 667 mmHg 21%
09:00 +34°C° 0 mm 3 mps 667 mmHg 16%
10:00 +38°C° 0 mm 3 mps 668 mmHg 11%
11:00 +40°C° 0 mm 3 mps 667 mmHg 10%
12:00 +42°C° 0 mm 4 mps 666 mmHg 9%
13:00 +43°C° 0 mm 4 mps 666 mmHg 7%
14:00 +43°C° 0 mm 4 mps 665 mmHg 7%
15:00 +43°C° 0 mm 4 mps 664 mmHg 7%
16:00 +43°C° 0 mm 4 mps 664 mmHg 7%
17:00 +39°C° 0 mm 3 mps 664 mmHg 8%
18:00 +36°C° 0 mm 2 mps 663 mmHg 10%
19:00 +32°C° 0 mm 1 mps 663 mmHg 11%
20:00 +31°C° 0 mm 1 mps 663 mmHg 12%
21:00 +29°C° 0 mm 2 mps 664 mmHg 13%
22:00 +28°C° 0 mm 2 mps 664 mmHg 14%
23:00 +27°C° 0 mm 2 mps 664 mmHg 18%

25 October, Sunday

Time Temperature Precipitation Wind Pressure Humidity
00:00 +27°C° 0 mm 3 mps 665 mmHg 23%
01:00 +25°C° 0 mm 3 mps 665 mmHg 26%
02:00 +24°C° 0 mm 3 mps 664 mmHg 30%
03:00 +22°C° 0 mm 3 mps 664 mmHg 33%
04:00 +20°C° 0 mm 2 mps 664 mmHg 36%
05:00 +21°C° 0 mm 2 mps 665 mmHg 33%
06:00 +24°C° 0 mm 2 mps 666 mmHg 30%
07:00 +25°C° 0 mm 2 mps 666 mmHg 27%
08:00 +29°C° 0 mm 2 mps 667 mmHg 21%
09:00 +34°C° 0 mm 3 mps 667 mmHg 16%
10:00 +38°C° 0 mm 3 mps 668 mmHg 11%
11:00 +40°C° 0 mm 3 mps 667 mmHg 10%
12:00 +42°C° 0 mm 4 mps 666 mmHg 9%
13:00 +43°C° 0 mm 4 mps 666 mmHg 7%
14:00 +43°C° 0 mm 4 mps 665 mmHg 7%
15:00 +43°C° 0 mm 4 mps 664 mmHg 7%
16:00 +43°C° 0 mm 4 mps 664 mmHg 7%
17:00 +39°C° 0 mm 3 mps 664 mmHg 8%
18:00 +36°C° 0 mm 2 mps 663 mmHg 10%
19:00 +32°C° 0 mm 1 mps 663 mmHg 11%
20:00 +31°C° 0 mm 1 mps 663 mmHg 12%
21:00 +29°C° 0 mm 2 mps 664 mmHg 13%
22:00 +28°C° 0 mm 2 mps 664 mmHg 14%
23:00 +27°C° 0 mm 2 mps 664 mmHg 18%

26 October, Monday

Time Temperature Precipitation Wind Pressure Humidity
00:00 +26°C° 0 mm 3 mps 664 mmHg 21%
01:00 +25°C° 0 mm 4 mps 664 mmHg 24%
02:00 +24°C° 0 mm 3 mps 663 mmHg 26%
03:00 +21°C° 0 mm 3 mps 663 mmHg 28%
04:00 +19°C° 0 mm 2 mps 662 mmHg 31%
05:00 +21°C° 0 mm 2 mps 663 mmHg 27%
06:00 +24°C° 0 mm 3 mps 664 mmHg 24%
07:00 +25°C° 0 mm 3 mps 665 mmHg 20%
08:00 +29°C° 0 mm 2 mps 665 mmHg 17%
09:00 +34°C° 0 mm 2 mps 666 mmHg 14%
10:00 +38°C° 0 mm 2 mps 666 mmHg 11%
11:00 +39°C° 0 mm 2 mps 666 mmHg 10%
12:00 +40°C° 0 mm 3 mps 665 mmHg 9%
13:00 +43°C° 0 mm 3 mps 665 mmHg 8%
14:00 +43°C° 0 mm 3 mps 664 mmHg 8%
15:00 +42°C° 0 mm 2 mps 664 mmHg 8%
16:00 +42°C° 0 mm 2 mps 663 mmHg 7%
17:00 +39°C° 0 mm 2 mps 663 mmHg 9%
18:00 +36°C° 0 mm 2 mps 663 mmHg 11%
19:00 +32°C° 0 mm 2 mps 663 mmHg 12%
20:00 +31°C° 0 mm 3 mps 663 mmHg 16%
21:00 +29°C° 0 mm 5 mps 664 mmHg 20%
22:00 +28°C° 0 mm 7 mps 664 mmHg 23%
23:00 +26°C° 0 mm 6 mps 664 mmHg 26%

27 October, Tuesday

Time Temperature Precipitation Wind Pressure Humidity
00:00 +23°C° 0 mm 5 mps 664 mmHg 29%
01:00 +22°C° 0 mm 4 mps 664 mmHg 32%
02:00 +21°C° 0 mm 4 mps 663 mmHg 33%
03:00 +20°C° 0 mm 4 mps 663 mmHg 33%
04:00 +20°C° 0 mm 4 mps 663 mmHg 33%
05:00 +21°C° 0 mm 4 mps 664 mmHg 29%
06:00 +22°C° 0 mm 4 mps 664 mmHg 26%
07:00 +23°C° 0 mm 4 mps 665 mmHg 22%
08:00 +27°C° 0 mm 3 mps 665 mmHg 20%
09:00 +31°C° 0 mm 3 mps 666 mmHg 17%
10:00 +35°C° 0 mm 2 mps 666 mmHg 15%
11:00 +38°C° 0 mm 2 mps 666 mmHg 13%
12:00 +41°C° 0 mm 1 mps 666 mmHg 11%
13:00 +41°C° 0 mm 0 mps 665 mmHg 9%
14:00 +44°C° 0 mm 1 mps 665 mmHg 9%
15:00 +43°C° 0 mm 1 mps 664 mmHg 9%
16:00 +42°C° 0 mm 2 mps 663 mmHg 8%
17:00 +39°C° 0 mm 2 mps 663 mmHg 10%
18:00 +36°C° 0 mm 2 mps 663 mmHg 12%
19:00 +32°C° 0 mm 2 mps 663 mmHg 14%
20:00 +31°C° 0 mm 3 mps 663 mmHg 16%
21:00 +30°C° 0 mm 5 mps 664 mmHg 19%
22:00 +29°C° 0 mm 6 mps 665 mmHg 21%
23:00 +27°C° 0 mm 5 mps 664 mmHg 23%
Show more